Regional Weather Roundup
Issued by NWS

Home | Current Version | Previous Version | Graphics & Text | Print | Product List | Glossary On
Versions: 1 2 3 4 5 6 7 8 9 10 11 12 13 14 15 16 17 18 19 20 21 22 23 24 25 26 27 28 29 30 31 32 33 34 35 36 37 38 39 40 41 42 43 44 45 46 47 48 49 50
537
ASUS43 KBIS 212110
RWRND

NORTH DAKOTA REGIONAL WEATHER ROUNDUP
NATIONAL WEATHER SERVICE BISMARCK ND
400 PM CDT FRI JUL 21 2017

NOTE: "FAIR" INDICATES FEW OR NO CLOUDS BELOW 12,000 FEET WITH NO
SIGNIFICANT WEATHER AND/OR OBSTRUCTIONS TO VISIBILITY.


NDZ001>003-009>011-017-212200-
NORTHWEST NORTH DAKOTA

CITY           SKY/WX    TMP DP  RH WIND       PRES   REMARKS
WILLISTON      MOSUNNY   91  56  30 W8G18     29.81F
MINOT          SUNNY     87  64  46 W10       29.79R
MINOT AFB      SUNNY     83  65  53 NW10      29.78S
$$

NDZ018>021-031>035-040>046-212200-
SOUTHWEST NORTH DAKOTA

CITY           SKY/WX    TMP DP  RH WIND       PRES   REMARKS
BISMARCK       MOSUNNY   90  69  50 E5        29.80F HX  94
DICKINSON      SUNNY     89  62  40 W5        29.84S
GARRISON         N/A     87  65  47 S12       29.80R
HETTINGER ARPT SUNNY     91  60  35 W9        29.86F HX  90
$$

NDZ004>008-012>016-024-026-027-054-212200-
NORTHEAST NORTH DAKOTA

CITY           SKY/WX    TMP DP  RH WIND       PRES   REMARKS
GRAND FORKS    LGT RAIN  76  72  87 SW8       29.78R
GRND FRKS AFB  PTSUNNY   77  70  80 W7        29.79R
DEVILS LAKE    CLOUDY    77  69  76 S14G20    29.73F
$$

NDZ022-023-025-028>030-036>039-047>053-212200-
SOUTHEAST NORTH DAKOTA

CITY           SKY/WX    TMP DP  RH WIND       PRES   REMARKS
FARGO          MOSUNNY   91  66  43 NW8       29.75S HX  93
JAMESTOWN      PTSUNNY   90  65  43 N6        29.80R HX  92
$$





USA.gov is the U.S. government's official web portal to all federal, state and local government web resources and services.